Погода в Юлистаро

Финляндия     62°56′24″N   22°30′47″E
темп.,
°C
ветер,
м/с
пор.,
м/с
влажн.,
%
обл.,
%
осадки,
мм/ч
давл.,
гПа
погр.,
м
9 мая, вс
вс900:00+2юз39697 0.0 1009234
03:000юз310815 0.0 1010218
06:000юз27815 0.0 1010156
09:00+7юз365114 0.0 1010578
12:00+10юз354242 0.2 10101954
15:00+12зюз573392 0.2 10102446
18:00+11юз5841100 0.0 10112074
21:00+7ююз4957100 0.0 1011909
10 мая, пн
пн1000:00+4ю3107799 0.0 1012426
03:00+4ююв3990100 0.0 1012801
06:00+5юв3885100 0.1 1011726
09:00+5юв3987100 0.1 1010677
12:00+8ю3681100 0.0 1010678
15:00+8юв1496100 1.0 1011157
18:00+8вюв1399100 1.9 1010134
21:00+9ююз1499100 5.9 1011119
11 мая, вт
вт1100:00+8ююз2796100 0.2 1012311
03:00+9ююв2895100 0.3 1013330
06:00+10ююв41592100 0.0 1012515
09:00+14ю5158596 0.0 1012898
12:00+17ююз6126768 0.0 10131056
15:00+19юз61061100 0.0 10141207
18:00+17юз41069100 0.0 1016951
21:00+14ююз41281100 0.0 1018736
12 мая, ср
ср1200:00+12ю2789100 0.0 1019248
03:00+10ююв2697100 0.0 1019150
06:00+10юв269432 0.0 1020148
09:00+15ю23695 0.0 1021486
12:00+20ююв3554100 0.0 10201359
15:00+22ю353857 0.0 10201959
18:00+22ююз25385 0.0 10201621
21:00+14сз24811 0.0 1020140
13 мая, чт
чт1300:00+11зюз00890 0.0 102110
03:00+10ююв11890 0.0 102110
06:00+11юв23820 0.0 102066
09:00+17юв25580 0.0 1020367
12:00+22юв35440 0.0 10181320
15:00+24юв3539100 0.0 10162401
18:00+22юв354957 0.0 10141713
21:00+18вюв2271100 0.1 101427